NIMBUS 2 DEB, 59970

Orbit data source: Space-Track

NIMBUS 2 DEB, 59970 is space debris in SSO originally from a launch on Sun, 15 May 1966 UTC launched from the Air Force Western Test Range (AFWTR). Debris objects in space refer to the collection of defunct objects orbiting the Earth. Examples of debris include non-operational satellites, rocket bodies, and fragments generated from explosions, collisions, or faulty payload assembly.

Loading next visibility...
Identifier
59970, 1966-040BZ
Orbit
SSO
Country
Flag of USUS
Related business
Manufacturer
Unknown
Mission
Spacecraft
Bus & Motor
Unknown
Mass
Unknown
Launch date (UTC)
1966-05-15 (60 years ago)
Launch vehicle
Unknown
Launch site
Air Force Western Test Range (AFWTR)
Object type
Payload
Rocket body
Debris
Shape & HBR
Unknown shape, 0.1 m
Radar Cross Section
Small (<0.1 m²)

Expand to show TLE details & history
Last TLE update: 3 days ago

TLE from 3 days ago
0 NIMBUS 2 DEB
1 59970U 66040BZ  26171.44972194  .00001093  00000-0  20375-2 0  9995
2 59970 100.3463 354.0894 0054899 207.2111 152.6137 13.41232824424680
Epoch: 2026-06-20T10:47Z
TLE epoch observation values (Epoch: 2026-06-20T10:47:35.975Z)
Latitude
0.00002°
Longitude
-76.47468°
Altitude
1,143.971 km
Speed
7.263 km/s
True Right ascension
23h 36m 21s
True Declination
0° 00' 00"
Sunlit
Object was in daylight at epoch
Visualization orbit readout
Latitude
Unknown
Longitude
Unknown
Altitude
Unknown
Speed
Unknown
Apparent Right ascension
Unknown
Apparent Declination
Unknown
Sunlit
N/A
Visualization observer readout
Local Sidereal Time
11:35:23
Azimuth
Unknown
Elevation
Unknown
Doppler factor
Unknown
Orbital elements
Apogee altitude
1,143.103 km
Perigee altitude
1,060.972 km
Semi-major axis
7,480.174 km
Eccentricity
0.00549
Inclination
100.3463°
RAAN
354.0894°
Arg. of periapsis
207.2111°
True anomaly
152.90132°
Mean anomaly
152.6137°
Eccentric anomaly
152.75769°
Mean motion
3.35487 °/min
Orbital period
107.31 mins
BSTAR
0.0020375
Loading maneuver chart data...
Computing Atmospheric mass density...
Loading historical data...
Loading historical data...
Loading historical data...
Loading historical data...
Loading historical data...
Loading historical data...
Loading historical data...

Documentation

Showing up to 5 results
|